H1 CPF 2 NER 2024 7 31 9 213 01 glonass132 H2 1401201 9132 39620 2024 7 31 0 0 0 2024 8 3 23 45 0 900 1 1 0 0 0 1 H9 10 0 60522 0.00000 0 -21278114.584 -4470680.642 13384024.397 10 0 60522 900.00000 0 -22684843.351 -4962439.668 10614309.555 10 0 60522 1800.00000 0 -23798000.719 -5213677.238 7638985.628 10 0 60522 2700.00000 0 -24571623.346 -5262204.515 4515678.564 10 0 60522 3600.00000 0 -24970372.453 -5154231.411 1304884.979 10 0 60522 4500.00000 0 -24971029.256 -4942175.412 -1931191.236 10 0 60522 5400.00000 0 -24563504.632 -4682212.292 -5129836.391 10 0 60522 6300.00000 0 -23751320.328 -4431671.764 -8229035.941 10 0 60522 7200.00000 0 -22551540.784 -4246387.812 -11168671.791 10 0 60522 8100.00000 0 -20994157.435 -4178115.433 -13891685.090 10 0 60522 9000.00000 0 -19120950.065 -4272123.000 -16345182.145 10 0 60522 9900.00000 0 -16983871.556 -4565062.275 -18481462.048 10 0 60522 10800.00000 0 -14643022.236 -5083206.719 -20258946.128 10 0 60522 11700.00000 0 -12164297.184 -5841133.510 -21642991.056 10 0 60522 12600.00000 0 -9616803.564 -6840906.292 -22606569.602 10 0 60522 13500.00000 0 -7070154.799 -8071794.837 -23130805.472 10 0 60522 14400.00000 0 -4591753.649 -9510545.422 -23205351.325 10 0 60522 15300.00000 0 -2244177.020 -11122192.573 -22828601.922 10 0 60522 16200.00000 0 -82771.255 -12861380.100 -22007737.447 10 0 60522 17100.00000 0 1846441.901 -14674137.707 -20758595.237 10 0 60522 18000.00000 0 3508461.154 -16500039.985 -19105371.420 10 0 60522 18900.00000 0 4880532.491 -18274658.057 -17080157.372 10 0 60522 19800.00000 0 5952855.679 -19932201.382 -14722319.251 10 0 60522 20700.00000 0 6728741.055 -21408238.541 -12077732.178 10 0 60522 21600.00000 0 7224210.579 -22642382.102 -9197883.817 10 0 60522 22500.00000 0 7467060.805 -23580823.711 -6138865.012 10 0 60522 23400.00000 0 7495428.473 -24178611.591 -2960267.763 10 0 60522 24300.00000 0 7355920.817 -24401573.464 275987.002 10 0 60522 25200.00000 0 7101391.393 -24227802.946 3506867.841 10 0 60522 26100.00000 0 6788457.432 -23648646.183 6669472.233 10 0 60522 27000.00000 0 6474865.686 -22669146.907 9702261.532 10 0 60522 27900.00000 0 6216820.028 -21307931.373 12546266.209 10 0 60522 28800.00000 0 6066385.361 -19596538.538 15146236.962 10 0 60522 29700.00000 0 6069078.676 -17578224.434 17451718.808 10 0 60522 30600.00000 0 6261749.695 -15306291.818 19418027.238 10 0 60522 31500.00000 0 6670840.721 -12842015.910 21007107.851 10 0 60522 32400.00000 0 7311098.842 -10252253.643 22188263.604 10 0 60522 33300.00000 0 8184794.274 -7606836.485 22938736.751 10 0 60522 34200.00000 0 9281477.062 -4975855.390 23244135.470 10 0 60522 35100.00000 0 10578281.825 -2426950.231 23098698.328 10 0 60522 36000.00000 0 12040767.320 -22715.285 22505392.750 10 0 60522 36900.00000 0 13624255.507 2181672.935 21475846.642 10 0 60522 37800.00000 0 15275614.176 4140508.830 20030115.314 10 0 60522 38700.00000 0 16935409.060 5819208.608 18196288.588 10 0 60522 39600.00000 0 18540336.116 7195492.345 16009945.818 10 0 60522 40500.00000 0 20025833.175 8260050.056 13513469.093 10 0 60522 41400.00000 0 21328762.757 9016665.832 10755227.395 10 0 60522 42300.00000 0 22390054.729 9481796.367 7788646.833 10 0 60522 43200.00000 0 23157199.052 9683622.682 4671184.146 10 0 60522 44100.00000 0 23586484.803 9660615.593 1463222.536 10 0 60522 45000.00000 0 23644891.947 9459675.565 -1773089.495 10 0 60522 45900.00000 0 23311556.518 9133925.344 -4975034.508 10 0 60522 46800.00000 0 22578747.324 8740248.216 -8080535.047 10 0 60522 47700.00000 0 21452312.468 8336675.486 -11029352.064 10 0 60522 48600.00000 0 19951575.852 7979733.166 -13764249.936 10 0 60522 49500.00000 0 18108686.625 7721859.755 -16232105.699 10 0 60522 50400.00000 0 15967447.297 7609004.177 -18384941.015 10 0 60522 51300.00000 0 13581667.909 7678505.621 -20180856.916 10 0 60522 52200.00000 0 11013113.412 7957345.403 -21584853.045 10 0 60522 53100.00000 0 8329128.479 8460845.564 -22569515.284 10 0 60522 54000.00000 0 5600037.489 9191870.412 -23115558.045 10 0 60522 54900.00000 0 2896427.014 10140566.204 -23212210.203 10 0 60522 55800.00000 0 286423.238 11284651.669 -22857436.461 10 0 60522 56700.00000 0 -2166922.741 12590248.947 -22057989.051 10 0 60522 57600.00000 0 -4408033.041 14013221.637 -20829287.823 10 0 60522 58500.00000 0 -6390884.587 15500965.100 -19195130.101 10 0 60522 59400.00000 0 -8080687.255 16994574.722 -17187235.027 10 0 60522 60300.00000 0 -9455088.419 18431301.484 -14844630.488 10 0 60522 61200.00000 0 -10504853.557 19747191.509 -12212894.039 10 0 60522 62100.00000 0 -11233994.735 20879797.969 -9343262.431 10 0 60522 63000.00000 0 -11659342.268 21770850.311 -6291627.253 10 0 60522 63900.00000 0 -11809578.582 22368767.062 -3117436.879 10 0 60522 64800.00000 0 -11723776.392 22630905.022 117472.949 10 0 60522 65700.00000 0 -11449504.640 22525448.816 3350095.922 10 0 60522 66600.00000 0 -11040584.089 22032860.146 6517494.190 10 0 60522 67500.00000 0 -10554589.456 21146825.001 9558034.144 10 0 60522 68400.00000 0 -10050205.580 19874658.663 12412593.672 10 0 60522 69300.00000 0 -9584551.081 18237151.595 15025716.417 10 0 60522 70200.00000 0 -9210583.854 16267863.164 17346690.075 10 0 60522 71100.00000 0 -8974698.788 14011893.461 19330527.712 10 0 60522 72000.00000 0 -8914619.362 11524185.387 20938833.394 10 0 60522 72900.00000 0 -9057671.807 8867428.576 22140536.167 10 0 60522 73800.00000 0 -9419513.943 6109652.980 22912479.288 10 0 60522 74700.00000 0 -10003371.367 3321612.335 23239854.581 10 0 60522 75600.00000 0 -10799812.181 574065.929 23116474.931 10 0 60522 76500.00000 0 -11787068.931 -2064929.344 22544880.906 10 0 60522 77400.00000 0 -12931893.626 -4532605.474 21536280.543 10 0 60522 78300.00000 0 -14190909.716 -6773842.740 20110324.261 10 0 60522 79200.00000 0 -15512404.411 -8743205.974 18294719.685 10 0 60522 80100.00000 0 -16838486.634 -10406575.127 16124693.937 10 0 60522 81000.00000 0 -18107520.831 -11742304.342 13642313.559 10 0 60522 81900.00000 0 -19256735.480 -12741863.136 10895674.697 10 0 60522 82800.00000 0 -20224897.850 -13409934.560 7937978.572 10 0 60522 83700.00000 0 -20954943.621 -13763967.530 4826509.318 10 0 60522 84600.00000 0 -21396451.732 -13833203.016 1621533.172 10 0 60522 85500.00000 0 -21507860.914 -13657215.505 -1614860.404 10 0 60523 0.00000 0 -21258334.944 -13284031.281 -4819953.595 10 0 60523 900.00000 0 -20629197.752 -12767902.447 -7931610.226 10 0 60523 1800.00000 0 -19614877.782 -12166830.770 -10889473.517 10 0 60523 2700.00000 0 -18223320.445 -11539944.738 -13636134.418 10 0 60523 3600.00000 0 -16475850.160 -10944840.643 -16118243.787 10 0 60523 4500.00000 0 -14406486.029 -10434999.493 -18287548.605 10 0 60523 5400.00000 0 -12060737.963 -10057388.757 -20101831.895 10 0 60523 6300.00000 0 -9493931.693 -9850350.364 -21525738.010 10 0 60523 7200.00000 0 -6769130.825 -9841864.557 -22531467.031 10 0 60523 8100.00000 0 -3954740.963 -10048263.638 -23099324.479 10 0 60523 9000.00000 0 -1121894.311 -10473450.926 -23218115.156 10 0 60523 9900.00000 0 1658277.351 -11108659.157 -22885372.765 10 0 60523 10800.00000 0 4317368.555 -11932759.948 -22107420.065 10 0 60523 11700.00000 0 6792311.808 -12913112.724 -20899257.417 10 0 60523 12600.00000 0 9027766.353 -14006918.625 -19284280.941 10 0 60523 13500.00000 0 10978184.374 -15163023.358 -17293834.825 10 0 60523 14400.00000 0 12609468.256 -16324093.640 -14966605.717 10 0 60523 15300.00000 0 13900149.522 -17429075.582 -12347870.447 10 0 60523 16200.00000 0 14842040.182 -18415831.040 -9488611.566 10 0 60523 17100.00000 0 15440329.564 -19223839.870 -6444518.054 10 0 60523 18000.00000 0 15713123.269 -19796852.866 -3274891.286 10 0 60523 18900.00000 0 15690444.855 -20085382.066 -41478.510 10 0 60523 19800.00000 0 15412743.816 -20048921.899 3192742.231 10 0 60523 20700.00000 0 14928974.630 -19657806.150 6364800.666 10 0 60523 21600.00000 0 14294329.934 -18894621.416 9412970.818 10 0 60523 22500.00000 0 13567725.526 -17755116.802 12277980.229 10 0 60523 23400.00000 0 12809145.205 -16248571.310 14904167.324 10 0 60523 24300.00000 0 12076959.011 -14397603.558 17240563.899 10 0 60523 25200.00000 0 11425329.005 -12237432.164 19241881.591 10 0 60523 26100.00000 0 10901812.438 -9814618.303 20869383.522 10 0 60523 27000.00000 0 10545263.180 -7185343.494 22091625.005 10 0 60523 27900.00000 0 10384119.173 -4413294.817 22885050.092 10 0 60523 28800.00000 0 10435146.973 -1567245.739 23234433.692 10 0 60523 29700.00000 0 10702694.987 1281567.155 23133162.113 10 0 60523 30600.00000 0 11178485.570 4062163.271 22583347.888 10 0 60523 31500.00000 0 11841953.663 6706521.200 21595777.756 10 0 60523 32400.00000 0 12661116.936 9152155.322 20189695.620 10 0 60523 33300.00000 0 13593940.528 11344460.659 18392425.127 10 0 60523 34200.00000 0 14590139.020 13238730.479 16238839.263 10 0 60523 35100.00000 0 15593340.323 14801764.747 13770687.021 10 0 60523 36000.00000 0 16543521.213 16013004.326 11035789.631 10 0 60523 36900.00000 0 17379612.945 16865145.251 8087121.276 10 0 60523 37800.00000 0 18042168.253 17364208.796 4981791.276 10 0 60523 38700.00000 0 18475978.315 17529065.417 1779946.651 10 0 60523 39600.00000 0 18632530.123 17390433.151 -1456384.426 10 0 60523 40500.00000 0 18472201.090 16989392.850 -4664486.549 10 0 60523 41400.00000 0 17966098.395 16375482.642 -7782165.795 10 0 60523 42300.00000 0 17097465.116 15604451.592 -10748950.220 10 0 60523 43200.00000 0 15862593.044 14735766.775 -13507259.164 10 0 60523 44100.00000 0 14271202.425 13829978.369 -16003518.925 10 0 60523 45000.00000 0 12346270.970 12946053.419 -18189203.231 10 0 60523 45900.00000 0 10123317.359 12138790.379 -20021778.353 10 0 60523 46800.00000 0 7649167.089 11456423.276 -21465534.452 10 0 60523 47700.00000 0 4980250.206 10938516.621 -22492286.773 10 0 60523 48600.00000 0 2180499.983 10614240.143 -23081932.766 10 0 60523 49500.00000 0 -681061.595 10501096.673 -23222853.801 10 0 60523 50400.00000 0 -3532952.339 10604157.650 -22912152.998 10 0 60523 51300.00000 0 -6303963.970 10915839.474 -22155723.755 10 0 60523 52200.00000 0 -8925888.666 11416231.215 -20968146.700 10 0 60523 53100.00000 0 -11336124.741 12073960.911 -19372416.115 10 0 60523 54000.00000 0 -13480052.878 12847564.760 -17399500.217 10 0 60523 54900.00000 0 -15313083.583 13687302.017 -15087743.035 10 0 60523 55800.00000 0 -16802290.036 14537339.132 -12482119.010 10 0 60523 56700.00000 0 -17927557.887 15338210.646 -9633354.587 10 0 60523 57600.00000 0 -18682203.862 16029452.135 -6596934.061 10 0 60523 58500.00000 0 -19073037.584 16552292.852 -3432009.635 10 0 60523 59400.00000 0 -19119864.781 16852292.777 -200237.815 10 0 60523 60300.00000 0 -18854454.033 16881811.176 3035433.962 10 0 60523 61200.00000 0 -18319012.201 16602200.919 6212005.398 10 0 60523 62100.00000 0 -17564234.624 15985634.562 9267660.615 10 0 60523 63000.00000 0 -16647014.252 15016484.164 12142979.327 10 0 60523 63900.00000 0 -15627908.289 13692196.107 14782097.300 10 0 60523 64800.00000 0 -14568470.713 12023623.833 17133792.972 10 0 60523 65700.00000 0 -13528564.352 10034804.605 19152479.031 10 0 60523 66600.00000 0 -12563766.352 7762189.927 20799079.997 10 0 60523 67500.00000 0 -11722976.309 5253362.171 22041779.593 10 0 60523 68400.00000 0 -11046327.128 2565291.258 22856624.531 10 0 60523 69300.00000 0 -10563485.431 -237795.819 23227974.336 10 0 60523 70200.00000 0 -10292411.541 -3086844.220 23148789.873 10 0 60523 71100.00000 0 -10238629.585 -5910598.852 22620756.320 10 0 60523 72000.00000 0 -10395036.901 -8638322.167 21654239.319 10 0 60523 72900.00000 0 -10742259.401 -11202490.665 20268075.946 10 0 60523 73800.00000 0 -11249537.038 -13541359.775 18489205.032 10 0 60523 74700.00000 0 -11876101.577 -15601292.345 16352144.088 10 0 60523 75600.00000 0 -12572988.639 -17338755.781 13898322.744 10 0 60523 76500.00000 0 -13285208.038 -18721906.521 11175285.086 10 0 60523 77400.00000 0 -13954181.626 -19731697.367 8235775.673 10 0 60523 78300.00000 0 -14520346.693 -20362462.808 5136726.157 10 0 60523 79200.00000 0 -14925815.985 -20621958.903 1938161.266 10 0 60523 80100.00000 0 -15116982.866 -20530856.688 -1297955.345 10 0 60523 81000.00000 0 -15046962.192 -20121710.715 -4508913.734 10 0 60523 81900.00000 0 -14677764.061 -19437446.026 -7632466.219 10 0 60523 82800.00000 0 -13982108.520 -18529426.935 -10608028.839 10 0 60523 83700.00000 0 -12944803.955 -17455188.404 -13377852.716 10 0 60523 84600.00000 0 -11563629.972 -16275924.965 -15888142.868 10 0 60523 85500.00000 0 -9849686.028 -15053842.312 -18090102.822 10 0 60524 0.00000 0 -7827189.383 -13849482.653 -19940884.663 10 0 60524 900.00000 0 -5532727.572 -12719135.400 -21404426.955 10 0 60524 1800.00000 0 -3013997.139 -11712443.532 -22452161.632 10 0 60524 2700.00000 0 -328075.553 -10870304.283 -23063579.159 10 0 60524 3600.00000 0 2460701.030 -10223154.278 -23226637.911 10 0 60524 4500.00000 0 5283168.429 -9789711.159 -22938010.227 10 0 60524 5400.00000 0 8067973.469 -9576225.329 -22203159.355 10 0 60524 6300.00000 0 10744312.409 -9576274.080 -21036244.875 10 0 60524 7200.00000 0 13244655.136 -9771107.488 -19459857.444 10 0 60524 8100.00000 0 15507341.730 -10130532.107 -17504587.089 10 0 60524 9000.00000 0 17478942.794 -10614295.555 -15208432.619 10 0 60524 9900.00000 0 19116284.660 -11173913.653 -12616063.107 10 0 60524 10800.00000 0 20388054.321 -11754862.598 -9777945.604 10 0 60524 11700.00000 0 21275916.609 -12299042.812 -6749356.176 10 0 60524 12600.00000 0 21775096.702 -12747409.104 -3589294.113 10 0 60524 13500.00000 0 21894403.882 -13042654.480 -359321.355 10 0 60524 14400.00000 0 21655696.414 -13131832.533 2877649.009 10 0 60524 15300.00000 0 21092811.264 -12968805.834 6058590.222 10 0 60524 16200.00000 0 20250005.338 -12516415.376 9121599.763 10 0 60524 17100.00000 0 19179975.703 -11748278.192 12007112.367 10 0 60524 18000.00000 0 17941544.051 -10650136.388 14659063.503 10 0 60524 18900.00000 0 16597104.600 -9220700.227 17025980.112 10 0 60524 19800.00000 0 15209944.257 -7471949.637 19061977.277 10 0 60524 20700.00000 0 13841548.576 -5428881.510 20727641.769 10 0 60524 21600.00000 0 12549007.086 -3128713.617 21990786.098 10 0 60524 22500.00000 0 11382626.548 -619578.587 22827059.585 10 0 60524 23400.00000 0 10383851.446 2041237.419 23220405.897 10 0 60524 24300.00000 0 9583577.548 4789438.150 23163359.594 10 0 60524 25200.00000 0 9000927.541 7556154.105 22657177.291 10 0 60524 26100.00000 0 8642538.314 10270572.286 21711801.986 10 0 60524 27000.00000 0 8502388.016 12862650.770 20345662.107 10 0 60524 27900.00000 0 8562168.646 15265806.780 18585309.606 10 0 60524 28800.00000 0 8792187.418 17419468.158 16464904.264 10 0 60524 29700.00000 0 9152758.300 19271383.834 14025553.944 10 0 60524 30600.00000 0 9596024.953 20779598.821 11314523.062 10 0 60524 31500.00000 0 10068138.464 21914012.882 8384323.965 10 0 60524 32400.00000 0 10511698.522 22657459.154 5291707.982 10 0 60524 33300.00000 0 10868355.723 23006258.607 2096574.899 10 0 60524 34200.00000 0 11081465.806 22970227.782 -1139178.765 10 0 60524 35100.00000 0 11098684.297 22572139.811 -4352851.037 10 0 60524 36000.00000 0 10874392.291 21846661.302 -7482142.827 10 0 60524 36900.00000 0 10371850.891 20838809.458 -10466360.285 10 0 60524 37800.00000 0 9564992.920 19601993.755 -13247588.191 10 0 60524 38700.00000 0 8439775.394 18195723.816 -15771811.889 10 0 60524 39600.00000 0 6995034.408 16683079.155 -17989966.048 10 0 60524 40500.00000 0 5242804.675 15128046.441 -19858889.973 10 0 60524 41400.00000 0 3208088.161 13592835.553 -21342170.862 10 0 60524 42300.00000 0 928079.221 12135286.779 -22410858.412 10 0 60524 43200.00000 0 -1549123.731 10806477.740 -23044036.621 10 0 60524 44100.00000 0 -4166268.424 9648630.517 -23229241.174 10 0 60524 45000.00000 0 -6859089.786 8693406.990 -22962713.664 10 0 60524 45900.00000 0 -9558754.210 7960664.316 -22249486.912 10 0 60524 46800.00000 0 -12194506.383 7457723.231 -21103298.795 10 0 60524 47700.00000 0 -14696409.040 7179180.406 -19546335.304 10 0 60524 48600.00000 0 -16998061.685 7107273.093 -17608806.856 10 0 60524 49500.00000 0 -19039184.677 7212780.921 -15328365.296 10 0 60524 50400.00000 0 -20767960.278 7456426.701 -12749372.359 10 0 60524 51300.00000 0 -22143032.120 7790716.716 -9922033.543 10 0 60524 52200.00000 0 -23135078.951 8162142.002 -6901414.432 10 0 60524 53100.00000 0 -23727896.068 8513646.345 -3746359.133 10 0 60524 54000.00000 0 -23918938.978 8787255.063 -518332.759 10 0 60524 54900.00000 0 -23719306.842 8926751.725 2719788.235 10 0 60524 55800.00000 0 -23153167.215 8880287.795 5904952.917 10 0 60524 56700.00000 0 -22256647.500 8602813.149 8975174.412 10 0 60524 57600.00000 0 -21076241.263 8058223.236 11870744.782 10 0 60524 58500.00000 0 -19666798.221 7221131.086 14535401.500 10 0 60524 59400.00000 0 -18089184.159 6078188.672 16917422.262 10 0 60524 60300.00000 0 -16407710.568 4628901.561 18970626.692 10 0 60524 61200.00000 0 -14687443.057 2885902.517 20655265.785 10 0 60524 62100.00000 0 -12991501.995 874672.680 21938782.580 10 0 60524 63000.00000 0 -11378468.427 -1367277.873 22796430.455 10 0 60524 63900.00000 0 -9900003.271 -3791735.804 23211738.335 10 0 60524 64800.00000 0 -8598778.152 -6341561.198 23176815.242 10 0 60524 65700.00000 0 -7506802.808 -8952841.608 22692489.608 10 0 60524 66600.00000 0 -6644217.090 -11557334.420 21768281.788 10 0 60524 67500.00000 0 -6018596.130 -14085096.957 20422211.160 10 0 60524 68400.00000 0 -5624795.845 -16467196.194 18680442.007 10 0 60524 69300.00000 0 -5445343.654 -18638386.846 16576775.198 10 0 60524 70200.00000 0 -5451356.731 -20539647.908 14151995.276 10 0 60524 71100.00000 0 -5603948.449 -22120473.600 11453085.112 10 0 60524 72000.00000 0 -5856063.466 -23340824.571 8532322.660 10 0 60524 72900.00000 0 -6154664.206 -24172659.155 5446276.528 10 0 60524 73800.00000 0 -6443176.854 -24600981.594 2254718.960 10 0 60524 74700.00000 0 -6664094.135 -24624363.958 -980523.399 10 0 60524 75600.00000 0 -6761625.431 -24254920.143 -4196759.426 10 0 60524 76500.00000 0 -6684282.662 -23517732.982 -7331641.604 10 0 60524 77400.00000 0 -6387292.809 -22449758.116 -10324369.252 10 0 60524 78300.00000 0 -5834734.950 -21098250.073 -13116863.923 10 0 60524 79200.00000 0 -5001310.941 -19518775.831 -15654894.368 10 0 60524 80100.00000 0 -3873674.010 -17772898.439 -17889129.369 10 0 60524 81000.00000 0 -2451257.742 -15925627.040 -19776098.053 10 0 60524 81900.00000 0 -746568.668 -14042739.461 -21279039.005 10 0 60524 82800.00000 0 1215072.009 -12188088.999 -22368621.496 10 0 60524 83700.00000 0 3396329.110 -10421007.766 -23023524.541 10 0 60524 84600.00000 0 5749165.455 -8793915.116 -23230862.079 10 0 60524 85500.00000 0 8216612.464 -7350231.251 -22986445.345 10 0 60525 0.00000 0 10734927.121 -6122683.614 -22294876.662 10 0 60525 900.00000 0 13236048.151 -5132076.625 -21169471.425 10 0 60525 1800.00000 0 15650246.478 -4386578.215 -19632009.858 10 0 60525 2700.00000 0 17908864.313 -3881551.105 -17712321.159 10 0 60525 3600.00000 0 19947025.108 -3599937.668 -15447708.145 10 0 60525 4500.00000 0 21706201.967 -3513181.261 -12882222.663 10 0 60525 5400.00000 0 23136536.198 -3582644.843 -10065805.713 10 0 60525 6300.00000 0 24198808.047 -3761466.138 -7053309.059 10 0 60525 7200.00000 0 24865976.143 -3996769.741 -3903417.946 10 0 60525 8100.00000 0 25124220.654 -4232141.146 -677496.795 10 0 60525 9000.00000 0 24973446.055 -4410256.214 2561618.476 10 0 60525 9900.00000 0 24427222.786 -4475553.005 5750856.557 10 0 60525 10800.00000 0 23512171.003 -4376831.107 8828149.799 10 0 60525 11700.00000 0 22266813.482 -4069666.868 11733650.802 10 0 60525 12600.00000 0 20739947.363 -3518541.149 14410901.830 10 0 60525 13500.00000 0 18988604.728 -2698588.791 16807933.634 10 0 60525 14400.00000 0 17075689.066 -1596895.471 18878272.193 10 0 60525 15300.00000 0 15067387.979 -213287.141 20581834.053 10 0 60525 16200.00000 0 13030471.245 1439421.094 21885693.650 10 0 60525 17100.00000 0 11029587.462 3335726.940 22764708.840 10 0 60525 18000.00000 0 9124671.902 5438280.892 23201993.795 10 0 60525 18900.00000 0 7368572.798 7699229.078 23189231.558 10 0 60525 19800.00000 0 5804993.636 10062003.119 22726821.515 10 0 60525 20700.00000 0 4466835.469 12463482.831 21823860.103 10 0 60525 21600.00000 0 3375006.330 14836442.452 20497955.981 10 0 60525 22500.00000 0 2537745.362 17112179.627 18774883.747 10 0 60525 23400.00000 0 1950487.948 19223218.878 16688083.037 10 0 60525 24300.00000 0 1596275.810 21105978.392 14278012.515 10 0 60525 25200.00000 0 1446693.563 22703290.351 11591370.756 10 0 60525 26100.00000 0 1463291.569 23966670.977 8680198.448 10 0 60525 27000.00000 0 1599434.802 24858246.587 5600878.513 10 0 60525 27900.00000 0 1802499.812 25352256.027 2413052.676 10 0 60525 28800.00000 0 2016327.345 25436067.098 -821525.253 10 0 60525 29700.00000 0 2183827.463 25110664.628 -4040177.848 10 0 60525 30600.00000 0 2249627.481 24390589.552 -7180511.840 10 0 60525 31500.00000 0 2162651.078 23303331.119 -10181622.172 10 0 60525 32400.00000 0 1878519.602 21888197.011 -12985269.317 10 0 60525 33300.00000 0 1361673.796 20194707.841 -15537007.286 10 0 60525 34200.00000 0 587125.618 18280582.368 -17787240.516 10 0 60525 35100.00000 0 -458234.866 16209396.796 -19692189.201 10 0 60525 36000.00000 0 -1774834.208 14048015.217 -21214744.293 10 0 60525 36900.00000 0 -3350147.701 11863897.872 -22325195.365 10 0 60525 37800.00000 0 -5158982.364 9722399.147 -23001816.934 10 0 60525 38700.00000 0 -7164301.251 7684167.742 -23231301.399 10 0 60525 39600.00000 0 -9318556.792 5802757.456 -23009029.544 10 0 60525 40500.00000 0 -11565479.457 4122548.339 -22339172.579 10 0 60525 41400.00000 0 -13842248.657 2677065.184 -21234622.819 10 0 60525 42300.00000 0 -16081956.382 1487763.868 -19716753.374 10 0 60525 43200.00000 0 -18216261.292 563336.436 -17815010.576 10 0 60525 44100.00000 0 -20178122.490 -100435.918 -15566346.216 10 0 60525 45000.00000 0 -21904498.170 -520276.053 -13014500.006 10 0 60525 45900.00000 0 -23338895.526 -724467.904 -10209145.995 10 0 60525 46800.00000 0 -24433664.049 -751417.922 -7204919.578 10 0 60525 47700.00000 0 -25151935.003 -647782.810 -4060344.594 10 0 60525 48600.00000 0 -25469124.582 -466244.259 -836682.229 10 0 60525 49500.00000 0 -25373937.084 -263026.561 2403274.676 10 0 60525 50400.00000 0 -24868825.873 -95263.991 5596436.945 10 0 60525 51300.00000 0 -23969892.836 -18331.328 8680658.611 10 0 60525 52200.00000 0 -22706231.330 -83252.207 11595955.230 10 0 60525 53100.00000 0 -21118741.348 -334296.406 14285676.169 10 0 60525 54000.00000 0 -19258467.936 -806868.666 16697607.419 10 0 60525 54900.00000 0 -17184533.940 -1525778.881 18784983.292 10 0 60525 55800.00000 0 -14961754.878 -2503966.827 20507387.606 10 0 60525 56700.00000 0 -12658036.634 -3741735.101 21831527.600 10 0 60525 57600.00000 0 -10341665.055 -5226522.258 22731866.660 10 0 60525 58500.00000 0 -8078600.452 -6933225.380 23191104.898 10 0 60525 59400.00000 0 -5929889.027 -8825058.319 23200499.700 10 0 60525 60300.00000 0 -3949297.776 -10854909.729 22760021.380 10 0 60525 61200.00000 0 -2181269.638 -12967144.356 21878342.101 10 0 60525 62100.00000 0 -659282.030 -15099772.948 20572659.138 10 0 60525 63000.00000 0 595325.038 -17186901.113 18868356.429 10 0 60525 63900.00000 0 1574004.504 -19161356.027 16798511.107 10 0 60525 64800.00000 0 2281116.049 -20957382.646 14403254.400 10 0 60525 65700.00000 0 2733495.060 -22513298.181 11728998.746 10 0 60525 66600.00000 0 2959496.048 -23773995.162 8827545.478 10 0 60525 67500.00000 0 2997551.555 -24693189.531 5755089.537 10 0 60525 68400.00000 0 2894307.548 -25235320.525 2571139.659 10 0 60525 69300.00000 0 2702413.933 -25377023.255 -662625.764 10 0 60525 70200.00000 0 2478063.180 -25108112.450 -3883545.680 10 0 60525 71100.00000 0 2278380.702 -24432035.875 -7029183.816 10 0 60525 72000.00000 0 2158776.891 -23365777.887 -10038533.521 10 0 60525 72900.00000 0 2170372.569 -21939216.328 -12853196.995 10 0 60525 73800.00000 0 2357606.686 -20193958.654 -15418516.285 10 0 60525 74700.00000 0 2756127.714 -18181704.893 -17684634.161 10 0 60525 75600.00000 0 3391058.510 -15962204.727 -19607464.390 10 0 60525 76500.00000 0 4275709.005 -13600892.920 -21149552.527 10 0 60525 77400.00000 0 5410792.504 -11166300.863 -22280810.327 10 0 60525 78300.00000 0 6784180.443 -8727351.378 -22979109.273 10 0 60525 79200.00000 0 8371208.019 -6350648.977 -23230721.232 10 0 60525 80100.00000 0 10135520.009 -4097878.159 -23030597.060 10 0 60525 81000.00000 0 12030423.387 -2023418.023 -22382476.991 10 0 60525 81900.00000 0 14000691.908 -172272.639 -21298829.736 10 0 60525 82800.00000 0 15984748.499 1421596.336 -19800620.496 10 0 60525 83700.00000 0 17917134.982 2736465.030 -17916911.462 10 0 60525 84600.00000 0 19731166.061 3763520.722 -15684301.673 10 0 60525 85500.00000 0 21361656.214 4506985.143 -13146216.545 99